User: anonymous   Login
Location: Catacaguana
(10.4120°N, 66.7591°W)
Time: 02:59:01
(UTC+00:00)
Language:

deb Kosmos-836 - Orbit

View from above orbital plane
View from above orbital plane
View from above satellite
View from above satellite

Ground track
Ground track

The orbit data is extracted from the following two-line orbital elements,

1 09572U 75112C   23027.74005370  .00041725  00000-0  17827-2 0  9995
2 09572  74.0248 141.4874 0006817  30.0123 330.1465 15.22649065515610
Epoch (UTC): 27 January 2023 17:45:40
Eccentricity: 0.0006817
inclination: 74.0248°
perigee height: 493 km
apogee height: 502 km
right ascension of ascending node: 141.4874°
argument of perigee: 30.0123°
revolutions per day: 15.22649065
mean anomaly at epoch: 330.1465°
orbit number at epoch: 51561

The dashed part of the orbit path shows where the satellite is in the earth's shadow,  

DLR